Weather History for KANK - December, 2012

Change the Weather History Date:

Monday, December 24, 2012

  Actual Average (KGUC) Record (KGUC)
Temperature  
Mean Temperature 29 °F -  
Max Temperature 37 °F 22 °F 37 °F (2013)
Min Temperature 21 °F 0 °F -18 °F (2001)
Degree Days  
Heating Degree Days 36    
Moisture  
Dew Point 14 °F    
Average Humidity 51    
Maximum Humidity 79    
Minimum Humidity 36    
Precipitation  
Precipitation 0.00 in - - ()
Sea Level Pressure  
Sea Level Pressure 29.82 in    
Wind  
Wind Speed 9 mph (SSE)    
Max Wind Speed 22 mph    
Max Gust Speed 36 mph    
Visibility 10 miles    
Events      
Averages and records for this station are not official NWS values.
T = Trace of Precipitation, MM = Missing Value Source: NWS Daily Summary

Daily Weather History Graph

Daily Weather History Graph

Search for Another Location

Airport or City:

Trip Planner

Search our weather history database for the weather conditions in past years. The results will help you decide how hot, cold, wet, or windy it might be!

Date:

Astronomy

Dec. 24, 2012 Rise Set
Actual Time 7:19 AM MST 4:48 PM MST
Civil Twilight 6:49 AM MST 5:18 PM MST
Nautical Twilight 6:16 AM MST 5:51 PM MST
Astronomical Twilight 5:44 AM MST 6:23 PM MST
Moon 2:16 PM MST (12/24) 4:01 AM MST (12/24)
Length of Visible Light 10h 28m
Length of Day
9h 28m
Waxing Gibbous, 89% of the Moon is Illuminated
Dec 24
Waxing Gibbous
Dec 28
Full
Jan 4
Last Quarter
Jan 11
New
Jan 18
First Quarter

Hourly Weather History & Observations

Time (MST) Temp. Windchill Dew Point Humidity Pressure Visibility Wind Dir Wind Speed Gust Speed Precip Events Conditions
12:15 AM 33.3 °F 25.7 °F 11.5 °F 41% 30.02 in 10.0 mi SE 9.2 mph 17.3 mph N/A   Clear
12:35 AM 32.0 °F 25.6 °F 10.9 °F 42% 30.01 in 10.0 mi WNW 6.9 mph - N/A   Clear
12:55 AM 30.4 °F 25.6 °F 11.1 °F 45% 30.01 in 10.0 mi WNW 4.6 mph - N/A   Clear
1:15 AM 29.8 °F 23.0 °F 11.7 °F 47% 30.00 in 10.0 mi North 6.9 mph - N/A   Clear
1:35 AM 28.2 °F 20.2 °F 11.8 °F 50% 29.98 in 10.0 mi North 8.1 mph - N/A   Clear
1:55 AM 28.2 °F 21.0 °F 12.0 °F 51% 29.98 in 10.0 mi NNW 6.9 mph - N/A   Clear
2:15 AM 26.2 °F - 11.8 °F 55% 29.98 in 10.0 mi Calm Calm - N/A   Clear
2:35 AM 27.9 °F 22.6 °F 12.0 °F 52% 29.97 in 10.0 mi NE 4.6 mph - N/A   Clear
2:55 AM 25.7 °F 20.1 °F 12.0 °F 56% 29.96 in 10.0 mi NNE 4.6 mph - N/A   Clear
3:15 AM 28.6 °F 18.7 °F 12.0 °F 50% 29.95 in 10.0 mi North 11.5 mph - N/A   Scattered Clouds
3:35 AM 25.9 °F 19.2 °F 12.2 °F 56% 29.95 in 10.0 mi North 5.8 mph - N/A   Scattered Clouds
3:55 AM 25.3 °F 19.7 °F 12.2 °F 58% 29.94 in 10.0 mi NNW 4.6 mph - N/A   Clear
4:15 AM 25.9 °F 19.2 °F 12.0 °F 56% 29.94 in 10.0 mi North 5.8 mph - N/A   Clear
4:35 AM 27.1 °F 19.7 °F 12.4 °F 54% 29.92 in 10.0 mi SE 6.9 mph - N/A   Clear
5:15 AM 27.5 °F 23.6 °F 12.2 °F 53% 29.90 in 10.0 mi NNE 3.5 mph - N/A   Clear
5:35 AM 27.5 °F 18.6 °F 12.2 °F 53% 29.89 in 10.0 mi West 9.2 mph - N/A   Clear
5:55 AM 29.7 °F 24.7 °F 11.5 °F 47% 29.88 in 10.0 mi NNW 4.6 mph - N/A   Clear
6:15 AM 32.0 °F - 10.8 °F 41% 29.89 in 10.0 mi Calm Calm - N/A   Clear
6:35 AM 29.3 °F 23.2 °F 12.0 °F 49% 29.89 in 10.0 mi WNW 5.8 mph - N/A   Scattered Clouds
6:55 AM 29.3 °F 18.6 °F 12.4 °F 49% 29.89 in 10.0 mi WSW 13.8 mph 23.0 mph N/A   Scattered Clouds
7:15 AM 30.2 °F 19.8 °F 12.9 °F 49% 29.89 in 10.0 mi South 13.8 mph 24.2 mph N/A   Clear
7:35 AM 30.0 °F 25.2 °F 12.9 °F 49% 29.88 in 10.0 mi West 4.6 mph - N/A   Clear
7:55 AM 30.9 °F 24.3 °F 12.4 °F 46% 29.87 in 10.0 mi SSE 6.9 mph 19.6 mph N/A   Clear
8:15 AM 29.8 °F 23.0 °F 12.4 °F 48% 29.87 in 10.0 mi NW 6.9 mph - N/A   Clear
8:35 AM 30.9 °F - 12.7 °F 47% 29.88 in 10.0 mi Calm Calm - N/A   Clear
8:55 AM 31.6 °F 27.0 °F 12.2 °F 45% 29.87 in 10.0 mi North 4.6 mph - N/A   Clear
9:35 AM 34.0 °F 25.0 °F 12.7 °F 42% 29.87 in 10.0 mi South 12.7 mph 28.8 mph N/A   Clear
9:55 AM 35.2 °F 25.8 °F 12.6 °F 39% 29.88 in 10.0 mi SSW 15.0 mph 23.0 mph N/A   Clear
10:15 AM 35.6 °F 27.5 °F 12.4 °F 38% 29.87 in 10.0 mi SSW 11.5 mph 19.6 mph N/A   Clear
10:35 AM 36.5 °F 26.7 °F 12.6 °F 37% 29.86 in 10.0 mi South 17.3 mph 28.8 mph N/A   Clear
10:55 AM 36.7 °F 27.6 °F 12.6 °F 37% 29.85 in 10.0 mi South 15.0 mph 20.7 mph N/A   Clear
11:15 AM 34.9 °F 24.6 °F 12.4 °F 40% 29.84 in 10.0 mi South 17.3 mph 26.5 mph N/A   Scattered Clouds
11:35 AM 37.6 °F 28.4 °F 12.6 °F 36% 29.82 in 10.0 mi South 16.1 mph 32.2 mph N/A   Mostly Cloudy
11:55 AM 36.5 °F 26.3 °F 12.4 °F 37% 29.79 in 10.0 mi South 18.4 mph 29.9 mph N/A   Mostly Cloudy
12:15 PM 35.2 °F 25.8 °F 12.4 °F 39% 29.78 in 10.0 mi SSW 15.0 mph 23.0 mph N/A   Scattered Clouds
12:35 PM 36.3 °F 26.1 °F 11.5 °F 36% 29.76 in 10.0 mi South 18.4 mph 28.8 mph N/A   Scattered Clouds
12:55 PM 35.1 °F 23.8 °F 11.5 °F 38% 29.75 in 10.0 mi SSW 20.7 mph 29.9 mph N/A   Clear
1:15 PM 34.7 °F 23.1 °F 10.9 °F 37% 29.73 in 10.0 mi South 21.9 mph 35.7 mph N/A   Clear
1:35 PM 34.7 °F 23.1 °F 11.1 °F 38% 29.72 in 10.0 mi South 21.9 mph 32.2 mph N/A   Scattered Clouds
1:55 PM 33.6 °F 22.2 °F 17.2 °F 51% 29.73 in 10.0 mi South 19.6 mph 32.2 mph N/A   Mostly Cloudy
2:15 PM 35.8 °F 26.9 °F 15.8 °F 44% 29.73 in 10.0 mi South 13.8 mph 24.2 mph N/A   Overcast
2:35 PM 34.7 °F 26.4 °F 15.3 °F 45% 29.72 in 10.0 mi South 11.5 mph 21.9 mph N/A   Scattered Clouds
2:55 PM 34.9 °F 25.7 °F 15.8 °F 46% 29.72 in 10.0 mi SSE 13.8 mph 21.9 mph N/A   Clear
3:15 PM 34.9 °F 25.7 °F 14.2 °F 43% 29.71 in 10.0 mi South 13.8 mph 23.0 mph N/A   Clear
3:35 PM 34.2 °F 26.2 °F 14.0 °F 44% 29.70 in 10.0 mi SSE 10.4 mph 21.9 mph N/A   Scattered Clouds
3:55 PM 33.3 °F 25.7 °F 15.8 °F 49% 29.71 in 10.0 mi SE 9.2 mph 19.6 mph N/A   Scattered Clouds
4:15 PM 32.9 °F 25.3 °F 17.4 °F 53% 29.71 in 10.0 mi SSW 9.2 mph - N/A   Overcast
4:35 PM 33.4 °F 23.5 °F 16.7 °F 50% 29.70 in 10.0 mi SSW 15.0 mph 21.9 mph N/A   Mostly Cloudy
4:55 PM 33.6 °F 24.6 °F 17.1 °F 51% 29.70 in 10.0 mi SSW 12.7 mph 20.7 mph N/A   Mostly Cloudy
5:15 PM 32.0 °F 21.6 °F 18.1 °F 57% 29.70 in 10.0 mi SSW 15.0 mph 19.6 mph N/A   Scattered Clouds
5:35 PM 31.8 °F 22.3 °F 18.1 °F 57% 29.70 in 10.0 mi SSW 12.7 mph 21.9 mph N/A   Clear
5:55 PM 31.5 °F 26.8 °F 18.0 °F 57% 29.70 in 10.0 mi West 4.6 mph - N/A   Scattered Clouds
6:15 PM 30.6 °F 24.7 °F 18.1 °F 60% 29.70 in 10.0 mi SSE 5.8 mph - N/A   Scattered Clouds
6:35 PM 31.1 °F 22.4 °F 18.1 °F 59% 29.71 in 10.0 mi SSW 10.4 mph - N/A   Mostly Cloudy
6:55 PM 31.3 °F 25.6 °F 18.3 °F 59% 29.71 in 10.0 mi South 5.8 mph - N/A   Mostly Cloudy
7:15 PM 28.8 °F - 18.3 °F 65% 29.72 in 10.0 mi Calm Calm - N/A   Overcast
7:35 PM 29.1 °F 25.4 °F 17.8 °F 63% 29.72 in 10.0 mi NE 3.5 mph - N/A   Overcast
7:55 PM 30.4 °F 22.9 °F 15.8 °F 55% 29.72 in 10.0 mi ESE 8.1 mph - N/A   Overcast
8:15 PM 30.2 °F 21.3 °F 14.9 °F 53% 29.73 in 10.0 mi ESE 10.4 mph - N/A   Overcast
8:35 PM 28.9 °F 21.9 °F 15.4 °F 57% 29.73 in 10.0 mi ESE 6.9 mph - N/A   Overcast
8:55 PM 27.3 °F 19.9 °F 15.6 °F 61% 29.74 in 10.0 mi ESE 6.9 mph - N/A   Overcast
9:15 PM 26.8 °F 21.4 °F 15.4 °F 62% 29.75 in 10.0 mi SE 4.6 mph - N/A   Overcast
9:35 PM 26.4 °F 18.9 °F 15.3 °F 63% 29.75 in 10.0 mi SE 6.9 mph - N/A   Overcast
9:55 PM 25.7 °F 16.4 °F 15.4 °F 65% 29.76 in 10.0 mi SE 9.2 mph - N/A   Overcast
10:15 PM 24.8 °F 14.6 °F 15.4 °F 68% 29.77 in 10.0 mi SE 10.4 mph 16.1 mph N/A   Overcast
10:35 PM 23.9 °F 12.3 °F 15.4 °F 70% 29.77 in 10.0 mi ESE 12.7 mph 17.3 mph N/A   Overcast
10:55 PM 22.5 °F 8.9 °F 15.4 °F 74% 29.78 in 10.0 mi ESE 16.1 mph 24.2 mph N/A   Overcast
11:15 PM 21.7 °F 10.2 °F 15.4 °F 77% 29.79 in 10.0 mi ESE 11.5 mph 19.6 mph N/A   Overcast
11:35 PM 21.2 °F 8.9 °F 15.6 °F 79% 29.80 in 10.0 mi ESE 12.7 mph 19.6 mph N/A   Overcast
11:55 PM 21.2 °F 7.8 °F 15.6 °F 79% 29.80 in 10.0 mi ESE 15.0 mph 19.6 mph N/A   Overcast